Starlink 1465

operational
NORAD ID: 45731 Int'l Des: 2020-038 Owner: SPXS Country: US Constellation: starlink
LEOCIRCULARSTARLINK_TYPE

Über Starlink 1465

Beschreibung wird geladen...

Live-Position

3D-Globus wird geladen...

Nächste Überflüge

Höhenverlauf

Altitude vs Time

uPlot chart will show altitude changes over time

Zweizeiliger Elementsatz

1 45731U 20038B 25303.14435938 .00001627 00000-0 12805-3 0 9998
2 45731 53.0550 102.6572 0001742 90.3934 269.7255 15.06408797296511
Epoch: 30. Okt. 2025 • Age: 19 hours

Aktueller Status

Höhe 566.6 km
Geschwindigkeit 7.58 km/s
Subsatellitenpunkt -52.43°S, 15.86°W
Startdatum 13. Juni 2020
Alter 5.3 years
Typ internet

Technische Details

Klassifizierung Payload
Masse 260.00 kg
Trockenmasse 248.00 kg
Gesamtmasse 260.00 kg
Länge 0.20 m
Durchmesser 2.80 m
Spannweite 9.00 m
Form Box + pan
Hersteller SPXS
Bus-Typ Starlink
Phasenstatus In Orbit
Besitzer/Staat SPXS/US

Große Konstellationen

Loading constellations...